RRR4717 EGWU-EGJB

Flight info

Callsign RRR4717
Flight time 0h 41m
Altitude 23000
Route CPT Y321 PEPIS/N0339F280 Q41 SAM N63 LELNA
Aircraft A400/H-SDE2E3FGHIJ4J5M1RWXY/LB1D1

Departure

Time 2026-05-04 19:21
Airport RAF Northolt (EGWU)

Arrival

Time 2026-05-04 20:02
Airport Guernsey Airport (EGJB)
Time Latitude Longitude Altitude Speed Heading
2026-05-04 18:59 51.54995 -0.41325 122 ft 0 kts 271°
2026-05-04 19:11 51.54996 -0.41329 127 ft 1 kts 281°
2026-05-04 19:11 51.55000 -0.41345 124 ft 2 kts 291°
2026-05-04 19:11 51.55007 -0.41374 125 ft 3 kts 290°
2026-05-04 19:12 51.55016 -0.41409 124 ft 4 kts 290°
2026-05-04 19:12 51.55034 -0.41487 126 ft 4 kts 290°
2026-05-04 19:12 51.55047 -0.41544 129 ft 7 kts 290°
2026-05-04 19:13 51.55070 -0.41638 126 ft 11 kts 291°
2026-05-04 19:13 51.55097 -0.41762 123 ft 12 kts 283°
2026-05-04 19:13 51.55083 -0.41897 125 ft 14 kts 251°
2026-05-04 19:13 51.55043 -0.42067 131 ft 18 kts 250°
2026-05-04 19:14 51.54996 -0.42267 126 ft 20 kts 250°
2026-05-04 19:14 51.54951 -0.42473 126 ft 19 kts 257°
2026-05-04 19:14 51.54953 -0.42598 130 ft 0 kts 275°
2026-05-04 19:19 51.54953 -0.42600 130 ft 2 kts 275°
2026-05-04 19:19 51.54956 -0.42659 129 ft 8 kts 275°
2026-05-04 19:19 51.54964 -0.42789 126 ft 15 kts 275°
2026-05-04 19:20 51.54975 -0.42966 122 ft 16 kts 276°
2026-05-04 19:20 51.55019 -0.43031 120 ft 8 kts 27°
2026-05-04 19:20 51.55039 -0.42980 119 ft 0 kts 66°
2026-05-04 19:20 51.55092 -0.42758 127 ft 67 kts 69°
2026-05-04 19:21 51.55376 -0.41563 260 ft 148 kts 65°
2026-05-04 19:21 51.55828 -0.39983 1111 ft 162 kts 60°
2026-05-04 19:21 51.56678 -0.38628 1863 ft 190 kts 27°
2026-05-04 19:21 51.57953 -0.37827 2882 ft 200 kts 19°
2026-05-04 19:22 51.59304 -0.37121 3956 ft 209 kts 17°
2026-05-04 19:22 51.60759 -0.36574 4664 ft 225 kts
2026-05-04 19:22 51.62421 -0.36134 4945 ft 256 kts
2026-05-04 19:22 51.64218 -0.35694 5016 ft 264 kts
2026-05-04 19:23 51.66054 -0.35742 5013 ft 265 kts 347°
2026-05-04 19:23 51.67684 -0.37016 5022 ft 263 kts 319°
2026-05-04 19:23 51.68771 -0.39363 5022 ft 264 kts 297°
2026-05-04 19:23 51.69517 -0.42068 5021 ft 264 kts 292°
2026-05-04 19:24 51.70192 -0.44822 5019 ft 264 kts 291°
2026-05-04 19:24 51.70850 -0.47585 5016 ft 265 kts 291°
2026-05-04 19:24 51.71513 -0.50355 5017 ft 265 kts 291°
2026-05-04 19:24 51.72178 -0.53116 5016 ft 263 kts 291°
2026-05-04 19:25 51.72739 -0.55917 5011 ft 263 kts 285°
2026-05-04 19:25 51.73170 -0.58787 5011 ft 263 kts 283°
2026-05-04 19:25 51.73573 -0.61673 4998 ft 263 kts 283°
2026-05-04 19:25 51.73971 -0.64551 4997 ft 263 kts 283°
2026-05-04 19:26 51.74368 -0.67426 5000 ft 263 kts 283°
2026-05-04 19:26 51.74769 -0.70312 4996 ft 264 kts 283°
2026-05-04 19:26 51.75170 -0.73206 5008 ft 264 kts 283°
2026-05-04 19:26 51.75511 -0.76118 5006 ft 264 kts 275°
2026-05-04 19:27 51.75329 -0.79041 5008 ft 264 kts 252°
2026-05-04 19:27 51.74405 -0.81585 5013 ft 266 kts 231°
2026-05-04 19:27 51.73140 -0.83770 5001 ft 266 kts 226°
2026-05-04 19:27 51.71821 -0.85867 5001 ft 266 kts 225°
2026-05-04 19:28 51.70496 -0.87953 5073 ft 265 kts 225°
2026-05-04 19:28 51.69179 -0.90040 5367 ft 266 kts 225°
2026-05-04 19:28 51.67861 -0.92137 5675 ft 267 kts 225°
2026-05-04 19:28 51.66539 -0.94248 5973 ft 268 kts 226°
2026-05-04 19:29 51.65219 -0.96359 6282 ft 268 kts 226°
2026-05-04 19:29 51.63914 -0.98448 6577 ft 268 kts 226°
2026-05-04 19:29 51.62591 -1.00563 6858 ft 269 kts 225°
2026-05-04 19:29 51.61263 -1.02686 7165 ft 270 kts 225°
2026-05-04 19:30 51.59927 -1.04821 7464 ft 271 kts 225°
2026-05-04 19:30 51.58568 -1.06991 7826 ft 283 kts 225°
2026-05-04 19:30 51.57155 -1.09246 8838 ft 284 kts 225°
2026-05-04 19:30 51.56217 -1.10739 9769 ft 279 kts 225°
2026-05-04 19:31 51.54382 -1.13661 11194 ft 283 kts 225°
2026-05-04 19:31 51.53441 -1.15157 11832 ft 289 kts 225°
2026-05-04 19:31 51.51994 -1.17458 12826 ft 295 kts 224°
2026-05-04 19:31 51.50511 -1.19792 13855 ft 301 kts 222°
2026-05-04 19:32 51.48745 -1.21635 14755 ft 307 kts 201°
2026-05-04 19:32 51.46650 -1.22531 15562 ft 316 kts 189°
2026-05-04 19:32 51.44447 -1.22922 16360 ft 322 kts 184°
2026-05-04 19:32 51.42180 -1.23053 16861 ft 328 kts 181°
2026-05-04 19:33 51.39890 -1.23088 17013 ft 329 kts 180°
2026-05-04 19:33 51.37603 -1.23120 17020 ft 328 kts 181°
2026-05-04 19:33 51.35324 -1.23190 17019 ft 327 kts 181°
2026-05-04 19:33 51.33049 -1.23304 17016 ft 328 kts 182°
2026-05-04 19:34 51.30766 -1.23456 17015 ft 329 kts 182°
2026-05-04 19:34 51.28476 -1.23630 17017 ft 330 kts 182°
2026-05-04 19:34 51.26183 -1.23817 17017 ft 330 kts 182°
2026-05-04 19:34 51.23887 -1.24009 17017 ft 330 kts 182°
2026-05-04 19:35 51.21631 -1.24200 17019 ft 330 kts 182°
2026-05-04 19:35 51.19352 -1.24702 17018 ft 331 kts 189°
2026-05-04 19:35 51.17075 -1.25467 17017 ft 331 kts 192°
2026-05-04 19:35 51.14864 -1.26319 17018 ft 331 kts 193°
2026-05-04 19:36 51.12631 -1.27245 17015 ft 331 kts 194°
2026-05-04 19:36 51.10406 -1.28197 17017 ft 331 kts 194°
2026-05-04 19:36 51.08182 -1.29155 17019 ft 331 kts 194°
2026-05-04 19:36 51.05957 -1.30110 17019 ft 331 kts 194°
2026-05-04 19:37 51.03729 -1.31059 17020 ft 331 kts 194°
2026-05-04 19:37 51.01502 -1.32001 17021 ft 331 kts 193°
2026-05-04 19:37 50.99276 -1.32936 17020 ft 331 kts 194°
2026-05-04 19:37 50.97053 -1.33886 17020 ft 331 kts 196°
2026-05-04 19:38 50.94897 -1.35188 17021 ft 332 kts 202°
2026-05-04 19:38 50.92788 -1.36686 17020 ft 332 kts 204°
2026-05-04 19:38 50.90704 -1.38277 17021 ft 333 kts 205°
2026-05-04 19:38 50.88636 -1.39920 17020 ft 333 kts 206°
2026-05-04 19:39 50.86575 -1.41584 17026 ft 333 kts 206°
2026-05-04 19:39 50.84507 -1.43258 17017 ft 334 kts 206°
2026-05-04 19:39 50.82442 -1.44924 17017 ft 334 kts 206°
2026-05-04 19:39 50.80365 -1.46592 17017 ft 334 kts 206°
2026-05-04 19:40 50.78288 -1.48250 17015 ft 334 kts 206°
2026-05-04 19:40 50.76209 -1.49904 17013 ft 334 kts 205°
2026-05-04 19:40 50.74130 -1.51554 17013 ft 334 kts 205°
2026-05-04 19:40 50.72049 -1.53203 17011 ft 334 kts 205°
2026-05-04 19:41 50.69974 -1.54844 17015 ft 334 kts 205°
2026-05-04 19:41 50.67889 -1.56492 17014 ft 334 kts 205°
2026-05-04 19:41 50.65809 -1.58135 17013 ft 334 kts 205°
2026-05-04 19:41 50.63729 -1.59776 17016 ft 334 kts 205°
2026-05-04 19:42 50.61647 -1.61418 17005 ft 335 kts 205°
2026-05-04 19:42 50.59555 -1.63066 17005 ft 335 kts 205°
2026-05-04 19:42 50.57470 -1.64707 17006 ft 336 kts 205°
2026-05-04 19:42 50.55406 -1.66329 17004 ft 336 kts 205°
2026-05-04 19:43 50.53293 -1.67988 17004 ft 336 kts 205°
2026-05-04 19:43 50.51203 -1.69628 17005 ft 336 kts 205°
2026-05-04 19:43 50.49113 -1.71267 17004 ft 336 kts 205°
2026-05-04 19:43 50.47023 -1.72903 17003 ft 336 kts 205°
2026-05-04 19:44 50.44932 -1.74539 17004 ft 336 kts 205°
2026-05-04 19:44 50.42840 -1.76173 17004 ft 336 kts 205°
2026-05-04 19:44 50.40776 -1.77785 17002 ft 336 kts 205°
2026-05-04 19:44 50.38659 -1.79436 17005 ft 336 kts 204°
2026-05-04 19:45 50.36597 -1.81043 17003 ft 335 kts 205°
2026-05-04 19:45 50.34476 -1.82694 17005 ft 335 kts 204°
2026-05-04 19:45 50.32419 -1.84294 17012 ft 335 kts 204°
2026-05-04 19:45 50.30328 -1.85918 17011 ft 336 kts 204°
2026-05-04 19:46 50.28230 -1.87546 16814 ft 336 kts 204°
2026-05-04 19:46 50.26138 -1.89168 16561 ft 335 kts 204°
2026-05-04 19:46 50.24056 -1.90782 16316 ft 333 kts 205°
2026-05-04 19:46 50.21984 -1.92385 16051 ft 332 kts 205°
2026-05-04 19:47 50.19923 -1.93979 15795 ft 330 kts 205°
2026-05-04 19:47 50.17870 -1.95564 15543 ft 328 kts 205°
2026-05-04 19:47 50.15828 -1.97140 15304 ft 327 kts 205°
2026-05-04 19:47 50.13796 -1.98706 15053 ft 325 kts 205°
2026-05-04 19:48 50.11772 -2.00265 14813 ft 323 kts 205°
2026-05-04 19:48 50.09763 -2.01810 14563 ft 322 kts 205°
2026-05-04 19:48 50.07755 -2.03354 14314 ft 320 kts 205°
2026-05-04 19:48 50.05783 -2.04868 14089 ft 319 kts 205°
2026-05-04 19:49 50.03794 -2.06394 13857 ft 317 kts 205°
2026-05-04 19:49 50.01822 -2.07906 13587 ft 316 kts 205°
2026-05-04 19:49 49.99855 -2.09413 13312 ft 315 kts 205°
2026-05-04 19:49 49.97967 -2.11122 13055 ft 314 kts 214°
2026-05-04 19:50 49.96247 -2.13219 12790 ft 314 kts 218°
2026-05-04 19:50 49.94582 -2.15398 12535 ft 313 kts 219°
2026-05-04 19:50 49.92923 -2.17589 12279 ft 313 kts 219°
2026-05-04 19:50 49.91269 -2.19768 12026 ft 312 kts 219°
2026-05-04 19:51 49.89616 -2.21939 11763 ft 311 kts 219°
2026-05-04 19:51 49.87968 -2.24098 11503 ft 310 kts 219°
2026-05-04 19:51 49.86323 -2.26248 11238 ft 309 kts 219°
2026-05-04 19:51 49.84690 -2.28390 10869 ft 306 kts 219°
2026-05-04 19:52 49.83076 -2.30524 10498 ft 303 kts 219°
2026-05-04 19:52 49.81477 -2.32629 10125 ft 301 kts 219°
2026-05-04 19:52 49.79896 -2.34699 9760 ft 294 kts 219°
2026-05-04 19:52 49.78342 -2.36724 9370 ft 288 kts 219°
2026-05-04 19:53 49.76817 -2.38708 8969 ft 285 kts 219°
2026-05-04 19:53 49.75305 -2.40670 8585 ft 283 kts 219°
2026-05-04 19:53 49.73797 -2.42625 8142 ft 282 kts 219°
2026-05-04 19:53 49.72293 -2.44572 7687 ft 280 kts 219°
2026-05-04 19:54 49.70801 -2.46501 7243 ft 279 kts 219°
2026-05-04 19:54 49.69314 -2.48420 6803 ft 278 kts 219°
2026-05-04 19:54 49.67854 -2.50296 6373 ft 277 kts 219°
2026-05-04 19:54 49.66375 -2.52190 5904 ft 275 kts 219°
2026-05-04 19:55 49.64902 -2.54078 5448 ft 274 kts 219°
2026-05-04 19:55 49.63483 -2.56019 4979 ft 273 kts 225°
2026-05-04 19:55 49.62232 -2.58204 4523 ft 270 kts 230°
2026-05-04 19:55 49.61041 -2.60419 4057 ft 267 kts 230°
2026-05-04 19:56 49.59867 -2.62612 3689 ft 261 kts 230°
2026-05-04 19:56 49.58723 -2.64745 3389 ft 255 kts 230°
2026-05-04 19:56 49.57600 -2.66833 3091 ft 251 kts 230°
2026-05-04 19:56 49.56494 -2.68885 2789 ft 248 kts 230°
2026-05-04 19:57 49.55308 -2.70785 2470 ft 246 kts 215°
2026-05-04 19:57 49.53797 -2.71980 2166 ft 244 kts 202°
2026-05-04 19:57 49.52237 -2.72905 2012 ft 233 kts 200°
2026-05-04 19:57 49.50791 -2.73727 1993 ft 210 kts 200°
2026-05-04 19:58 49.49476 -2.74469 2003 ft 195 kts 200°
2026-05-04 19:58 49.48217 -2.75180 2007 ft 191 kts 200°
2026-05-04 19:58 49.46974 -2.75890 1998 ft 191 kts 200°
2026-05-04 19:58 49.45773 -2.76574 2003 ft 177 kts 199°
2026-05-04 19:59 49.44590 -2.76809 2005 ft 170 kts 171°
2026-05-04 19:59 49.43647 -2.75922 1996 ft 160 kts 116°
2026-05-04 19:59 49.43284 -2.74329 1988 ft 153 kts 102°
2026-05-04 19:59 49.43162 -2.72811 1824 ft 136 kts 86°
2026-05-04 20:00 49.43201 -2.71387 1634 ft 132 kts 87°
2026-05-04 20:00 49.43225 -2.69990 1451 ft 130 kts 85°
2026-05-04 20:00 49.43265 -2.68598 1273 ft 130 kts 85°
2026-05-04 20:00 49.43301 -2.67212 1102 ft 130 kts 85°
2026-05-04 20:01 49.43339 -2.65831 929 ft 129 kts 85°
2026-05-04 20:01 49.43377 -2.64453 753 ft 130 kts 85°
2026-05-04 20:01 49.43415 -2.63078 583 ft 129 kts 85°
2026-05-04 20:01 49.43453 -2.61711 411 ft 127 kts 85°
2026-05-04 20:02 49.43488 -2.60439 318 ft 92 kts 88°
2026-05-04 20:02 49.43502 -2.59960 327 ft 15 kts 84°
2026-05-04 20:02 49.43462 -2.59865 330 ft 10 kts 165°
2026-05-04 20:02 49.43403 -2.59859 333 ft 8 kts 177°
2026-05-04 20:03 49.43390 -2.59857 334 ft 1 kts 176°
2026-05-04 20:03 49.43368 -2.59850 333 ft 6 kts 158°
2026-05-04 20:03 49.43350 -2.59808 334 ft 3 kts 103°
2026-05-04 20:03 49.43350 -2.59794 334 ft 0 kts 92°
2026-05-04 20:04 49.43350 -2.59784 333 ft 3 kts 85°
2026-05-04 20:05 49.43357 -2.59726 333 ft 6 kts 82°
2026-05-04 20:05 49.43361 -2.59641 339 ft 8 kts 87°
2026-05-04 20:05 49.43364 -2.59550 337 ft 9 kts 87°
2026-05-04 20:05 49.43367 -2.59445 351 ft 11 kts 87°
2026-05-04 20:06 49.43371 -2.59328 344 ft 11 kts 87°
2026-05-04 20:06 49.43374 -2.59211 343 ft 11 kts 88°
2026-05-04 20:06 49.43381 -2.59105 342 ft 7 kts 74°
2026-05-04 20:06 49.43372 -2.59055 337 ft 5 kts 110°
2026-05-04 20:07 49.43376 -2.58992 341 ft 7 kts 75°
2026-05-04 20:07 49.43379 -2.58917 341 ft 7 kts 110°
2026-05-04 20:07 49.43348 -2.58906 341 ft 5 kts 203°
2026-05-04 20:07 49.43346 -2.58945 338 ft 4 kts 300°
2026-05-04 20:08 49.43349 -2.58950 341 ft 0 kts 306°